Location: Ajisawe
(8.4333°N, 4.3833°E)
Time: 21:16:08
(UTC+00:00)

Vanguard 2 Rocket - Pass Details

Date: 24 April 2021
Orbit: 554 x 3326 km, 32.9° (Epoch: 16 May)

Event Time Altitude Azimuth Distance (km) Brightness Sun altitude
Rises 22:07:18 0° 274° (W) 5,747 11.3 -58.3°
Enters shadow 22:13:47 - 254° (WSW) 4,140 10.4 -59.5°
Reaches altitude 10° 22:14:28 10° 251° (WSW) 3,992 - -59.6°
Maximum altitude 22:18:27 13° 227° (SW) 3,320 - -60.3°
Drops below altitude 10° 22:21:45 10° 202° (SSW) 3,158 - -60.9°
Sets 22:26:01 0° 173° (S) 3,626 - -61.6°
